Whidbey Island, WA

6:03 AM PDT on March 26, 2017 (GMT -0700)
Whidbey Island Naval Air Station

Weather History for KNUW - May, 2013

Change the Weather History Date:

Wednesday, May 22, 2013

  Actual Average Record
Temperature  
Mean Temperature 50 °F -  
Max Temperature 55 °F 58 °F 68 °F (2001)
Min Temperature 46 °F 44 °F 41 °F (1999)
Degree Days  
Heating Degree Days 14    
Moisture  
Dew Point 45 °F    
Average Humidity 84    
Maximum Humidity 93    
Minimum Humidity 69    
Precipitation  
Precipitation 0.23 in - - ()
Sea Level Pressure  
Sea Level Pressure 29.91 in    
Wind  
Wind Speed 4 mph (South)    
Max Wind Speed 13 mph    
Max Gust Speed -    
Visibility 9 miles    
Events Rain    
Averages and records for this station are not official NWS values.
T = Trace of Precipitation, MM = Missing Value Source: NWS Daily Summary

Daily Weather History Graph

Daily Weather History Graph

Search for Another Location

Airport or City:

Trip Planner

Search our weather history database for the weather conditions in past years. The results will help you decide how hot, cold, wet, or windy it might be!

Date:

Astronomy

May. 22, 2013 Rise Set
Actual Time 5:22 AM PDT 8:53 PM PDT
Civil Twilight 4:43 AM PDT 9:32 PM PDT
Nautical Twilight 3:51 AM PDT 10:24 PM PDT
Astronomical Twilight 2:42 AM PDT 11:35 PM PDT
Moon 6:11 PM PDT (5/22) 3:43 AM PDT (5/22)
Length of Visible Light 16h 48m
Length of Day
15h 31m
Waxing Gibbous, 92% of the Moon is Illuminated
May 22
Waxing Gibbous
May 24
Full
May 31
Last Quarter
Jun 8
New
Jun 16
First Quarter

Hourly Weather History & Observations

Time (PDT) Temp. Dew Point Humidity Pressure Visibility Wind Dir Wind Speed Gust Speed Precip Events Conditions
12:56 AM 48.0 °F 44.1 °F 86% 29.88 in 10.0 mi Calm Calm - N/A   Overcast
1:56 AM 46.9 °F 44.1 °F 90% 29.89 in 10.0 mi East 6.9 mph - N/A   Mostly Cloudy
2:56 AM 48.0 °F 45.0 °F 89% 29.89 in 10.0 mi ESE 5.8 mph - N/A   Overcast
3:56 AM 46.9 °F 45.0 °F 93% 29.89 in 10.0 mi ESE 5.8 mph - N/A   Overcast
4:56 AM 46.9 °F 45.0 °F 93% 29.89 in 10.0 mi ESE 5.8 mph - N/A   Mostly Cloudy
5:56 AM 46.0 °F 43.0 °F 89% 29.88 in 10.0 mi Calm Calm - N/A   Mostly Cloudy
6:56 AM 46.9 °F 45.0 °F 93% 29.88 in 10.0 mi Calm Calm - N/A   Overcast
7:56 AM 48.9 °F 46.0 °F 90% 29.88 in 10.0 mi Calm Calm - N/A   Mostly Cloudy
8:56 AM 52.0 °F 45.0 °F 77% 29.88 in 10.0 mi SSW 6.9 mph - N/A   Mostly Cloudy
9:56 AM 52.0 °F 45.0 °F 77% 29.89 in 10.0 mi WNW 3.5 mph - N/A   Mostly Cloudy
10:56 AM 51.1 °F 46.0 °F 83% 29.88 in 10.0 mi WSW 5.8 mph - N/A   Overcast
11:56 AM 52.0 °F 46.0 °F 80% 29.89 in 10.0 mi WSW 8.1 mph - N/A   Overcast
12:56 PM 53.1 °F 45.0 °F 74% 29.89 in 10.0 mi West 6.9 mph - N/A   Overcast
1:56 PM 52.0 °F 44.1 °F 74% 29.91 in 9.0 mi WSW 5.8 mph - 0.00 in Rain Light Rain
2:43 PM 53.6 °F 44.6 °F 72% 29.89 in 10.0 mi West 4.6 mph - 0.00 in   Overcast
2:56 PM 53.1 °F 44.1 °F 71% 29.91 in 10.0 mi West 6.9 mph - 0.00 in   Overcast
3:56 PM 55.0 °F 46.9 °F 74% 29.90 in 10.0 mi SSE 4.6 mph - N/A   Mostly Cloudy
4:56 PM 55.0 °F 45.0 °F 69% 29.90 in 10.0 mi SSE 8.1 mph - N/A   Overcast
5:56 PM 53.1 °F 46.0 °F 77% 29.91 in 10.0 mi South 10.4 mph - N/A   Overcast
6:16 PM 51.8 °F 46.4 °F 82% 29.91 in 10.0 mi SSE 12.7 mph - 0.00 in Rain Light Rain
6:56 PM 50.0 °F 46.9 °F 89% 29.93 in 7.0 mi SSE 5.8 mph - 0.03 in Rain Light Rain
7:56 PM 48.9 °F 46.9 °F 93% 29.94 in 3.0 mi Calm Calm - 0.12 in Rain Rain
8:14 PM 48.2 °F 46.4 °F 93% 29.93 in 8.0 mi Calm Calm - 0.03 in Rain Light Rain
8:56 PM 48.9 °F 46.0 °F 90% 29.95 in 8.0 mi East 5.8 mph - 0.04 in Rain Light Rain
9:56 PM 48.9 °F 46.9 °F 93% 29.96 in 8.0 mi Calm Calm - 0.02 in Rain Light Rain
10:56 PM 48.9 °F 46.9 °F 93% 29.96 in 10.0 mi East 8.1 mph - 0.02 in Rain Light Rain
11:56 PM 48.0 °F 46.0 °F 93% 29.95 in 10.0 mi ESE 3.5 mph - 0.00 in   Overcast